When you browse on this site, cookies collect data to enhance your experience and personalize the content and advertising you see.
Visit our Privacy Policy to learn more. By continuing to use the site, you agree to this use of cookies and data.
  • In Hungary
  • List of Countries
  • For 7 days
  • Water Temperature
  • Satellite Maps
  • Weather Map
  • News
  • Weather Widgets
  • user-avatar
    Login

    Hourly Weather Knokke-Heist

    Today, 17 November, Saturday

    Time Temperature Precipitation Wind Pressure Humidity
    00:00 +3°C° 0 mm 4 mps 770 mmHg 80%
    01:00 +3°C° 0 mm 4 mps 770 mmHg 79%
    02:00 +3°C° 0 mm 4 mps 770 mmHg 78%
    03:00 +3°C° 0 mm 4 mps 770 mmHg 77%
    04:00 +1°C° 0 mm 4 mps 770 mmHg 78%
    05:00 +1°C° 0 mm 5 mps 770 mmHg 79%
    06:00 +1°C° 0 mm 5 mps 770 mmHg 80%
    07:00 +2°C° 0 mm 6 mps 770 mmHg 78%
    08:00 +2°C° 0 mm 6 mps 770 mmHg 76%
    09:00 +3°C° 0 mm 7 mps 770 mmHg 74%
    10:00 +4°C° 0 mm 7 mps 770 mmHg 69%
    11:00 +5°C° 0 mm 7 mps 770 mmHg 65%
    12:00 +8°C° 0 mm 7 mps 770 mmHg 60%
    13:00 +8°C° 0 mm 7 mps 770 mmHg 60%
    14:00 +6°C° 0 mm 7 mps 770 mmHg 60%
    15:00 +6°C° 0 mm 7 mps 770 mmHg 60%
    16:00 +6°C° 0 mm 8 mps 770 mmHg 60%
    17:00 +5°C° 0 mm 8 mps 770 mmHg 61%
    18:00 +4°C° 0 mm 8 mps 770 mmHg 61%
    19:00 +4°C° 0 mm 8 mps 770 mmHg 62%
    20:00 +4°C° 0 mm 8 mps 771 mmHg 62%
    21:00 +2°C° 0 mm 8 mps 771 mmHg 62%
    22:00 +3°C° 0 mm 7 mps 771 mmHg 62%
    23:00 +2°C° 0 mm 7 mps 771 mmHg 62%

    Tomorrow, 18 November, Sunday

    Time Temperature Precipitation Wind Pressure Humidity
    00:00 +2°C° 0 mm 7 mps 771 mmHg 62%
    01:00 +2°C° 0 mm 7 mps 771 mmHg 62%
    02:00 +2°C° 0 mm 7 mps 771 mmHg 62%
    03:00 0°C° 0 mm 7 mps 771 mmHg 63%
    04:00 0°C° 0 mm 7 mps 771 mmHg 62%
    05:00 0°C° 0 mm 7 mps 771 mmHg 62%
    06:00 0°C° 0 mm 8 mps 771 mmHg 61%
    07:00 0°C° 0 mm 8 mps 771 mmHg 59%
    08:00 +1°C° 0 mm 8 mps 771 mmHg 56%
    09:00 +1°C° 0 mm 8 mps 771 mmHg 53%
    10:00 +2°C° 0 mm 8 mps 771 mmHg 51%
    11:00 +4°C° 0 mm 8 mps 770 mmHg 49%
    12:00 +5°C° 0 mm 8 mps 770 mmHg 47%
    13:00 +5°C° 0 mm 8 mps 770 mmHg 47%
    14:00 +5°C° 0 mm 8 mps 770 mmHg 47%
    15:00 +5°C° 0 mm 8 mps 769 mmHg 48%
    16:00 +4°C° 0 mm 8 mps 769 mmHg 47%
    17:00 +2°C° 0 mm 8 mps 769 mmHg 46%
    18:00 +1°C° 0 mm 8 mps 769 mmHg 45%
    19:00 +1°C° 0 mm 8 mps 769 mmHg 46%
    20:00 +1°C° 0 mm 8 mps 769 mmHg 47%
    21:00 +1°C° 0 mm 9 mps 769 mmHg 47%
    22:00 0°C° 0 mm 9 mps 769 mmHg 55%
    23:00 0°C° 0 mm 9 mps 769 mmHg 62%

    Day after tomorrow, 19 November, Monday

    Time Temperature Precipitation Wind Pressure Humidity
    00:00 0°C° 0 mm 9 mps 769 mmHg 69%
    01:00 0°C° 0 mm 9 mps 768 mmHg 74%
    02:00 0°C° 0 mm 9 mps 768 mmHg 80%
    03:00 0°C° 0 mm 9 mps 768 mmHg 85%
    04:00 0°C° 0 mm 9 mps 768 mmHg 87%
    05:00 0°C° 0 mm 9 mps 767 mmHg 89%
    06:00 0°C° 0 mm 9 mps 767 mmHg 90%
    07:00 +1°C° 0 mm 9 mps 767 mmHg 87%
    08:00 +2°C° 0 mm 9 mps 767 mmHg 84%
    09:00 +2°C° 0 mm 9 mps 766 mmHg 81%
    10:00 +3°C° 0 mm 9 mps 766 mmHg 78%
    11:00 +3°C° 0 mm 9 mps 766 mmHg 75%
    12:00 +5°C° 0 mm 9 mps 765 mmHg 73%
    13:00 +5°C° 0.1 mm 9 mps 765 mmHg 72%
    14:00 +5°C° 0.1 mm 9 mps 764 mmHg 71%
    15:00 +5°C° 0.1 mm 9 mps 763 mmHg 70%
    16:00 +3°C° 0.1 mm 9 mps 763 mmHg 72%
    17:00 +3°C° 0.1 mm 9 mps 763 mmHg 73%
    18:00 +2°C° 0.1 mm 9 mps 763 mmHg 75%
    19:00 +2°C° 0.1 mm 9 mps 762 mmHg 76%
    20:00 +2°C° 0.1 mm 9 mps 762 mmHg 77%
    21:00 +1°C° 0.1 mm 9 mps 762 mmHg 77%
    22:00 +1°C° 0.1 mm 9 mps 762 mmHg 78%
    23:00 +1°C° 0.1 mm 9 mps 761 mmHg 79%

    20 November, Tuesday

    Time Temperature Precipitation Wind Pressure Humidity
    00:00 0°C° 0.1 mm 9 mps 761 mmHg 80%
    01:00 0°C° 0.1 mm 10 mps 760 mmHg 80%
    02:00 0°C° 0.1 mm 10 mps 760 mmHg 79%
    03:00 -2°C° 0.1 mm 10 mps 760 mmHg 78%
    04:00 -2°C° 0.1 mm 10 mps 759 mmHg 78%
    05:00 -2°C° 0.1 mm 10 mps 759 mmHg 77%
    06:00 -2°C° 0.1 mm 10 mps 759 mmHg 76%
    07:00 -1°C° 0.1 mm 11 mps 758 mmHg 73%
    08:00 -1°C° 0.1 mm 11 mps 758 mmHg 69%
    09:00 +1°C° 0.1 mm 11 mps 758 mmHg 66%
    10:00 +1°C° 0.1 mm 10 mps 758 mmHg 65%
    11:00 +1°C° 0.1 mm 10 mps 757 mmHg 64%
    12:00 +2°C° 0.1 mm 10 mps 757 mmHg 63%
    13:00 +2°C° 0.2 mm 10 mps 756 mmHg 65%
    14:00 +1°C° 0.2 mm 9 mps 756 mmHg 67%
    15:00 +1°C° 0.2 mm 9 mps 756 mmHg 68%
    16:00 +1°C° 0.1 mm 9 mps 756 mmHg 70%
    17:00 0°C° 0.1 mm 9 mps 756 mmHg 72%
    18:00 -1°C° 0.1 mm 8 mps 756 mmHg 73%
    19:00 -1°C° 0 mm 8 mps 756 mmHg 75%
    20:00 -1°C° 0 mm 7 mps 756 mmHg 77%
    21:00 -1°C° 0 mm 7 mps 756 mmHg 79%
    22:00 -1°C° 0.1 mm 7 mps 756 mmHg 80%
    23:00 -1°C° 0.1 mm 6 mps 756 mmHg 81%

    21 November, Wednesday

    Time Temperature Precipitation Wind Pressure Humidity
    00:00 0°C° 0.1 mm 5 mps 756 mmHg 82%
    01:00 0°C° 0.1 mm 5 mps 756 mmHg 84%
    02:00 0°C° 0.1 mm 5 mps 756 mmHg 85%
    03:00 -1°C° 0.1 mm 4 mps 756 mmHg 87%
    04:00 -1°C° 0.2 mm 4 mps 756 mmHg 87%
    05:00 -1°C° 0.2 mm 4 mps 755 mmHg 87%
    06:00 0°C° 0.2 mm 3 mps 755 mmHg 88%
    07:00 +1°C° 0.4 mm 3 mps 755 mmHg 87%
    08:00 +1°C° 0.4 mm 3 mps 756 mmHg 87%
    09:00 +1°C° 0.4 mm 3 mps 756 mmHg 86%
    10:00 +1°C° 0.4 mm 3 mps 756 mmHg 85%
    11:00 +2°C° 0.4 mm 3 mps 756 mmHg 85%
    12:00 +2°C° 0.4 mm 3 mps 756 mmHg 84%
    13:00 +2°C° 0.4 mm 3 mps 756 mmHg 84%
    14:00 +1°C° 0.4 mm 4 mps 755 mmHg 84%
    15:00 +1°C° 0.4 mm 4 mps 755 mmHg 85%
    16:00 +1°C° 0.5 mm 5 mps 756 mmHg 84%
    17:00 +1°C° 0.5 mm 6 mps 756 mmHg 83%
    18:00 0°C° 0.5 mm 7 mps 756 mmHg 82%
    19:00 0°C° 0.3 mm 7 mps 756 mmHg 81%
    20:00 0°C° 0.3 mm 8 mps 757 mmHg 79%
    21:00 0°C° 0.3 mm 8 mps 757 mmHg 78%
    22:00 -1°C° 0.2 mm 9 mps 757 mmHg 78%
    23:00 -1°C° 0.2 mm 9 mps 758 mmHg 78%

    22 November, Thursday

    Time Temperature Precipitation Wind Pressure Humidity
    00:00 -1°C° 0.2 mm 9 mps 758 mmHg 79%
    01:00 -3°C° 0.1 mm 9 mps 759 mmHg 81%
    02:00 -2°C° 0.1 mm 8 mps 759 mmHg 83%
    03:00 -4°C° 0.1 mm 8 mps 760 mmHg 84%
    04:00 -4°C° 0 mm 8 mps 760 mmHg 85%
    05:00 -3°C° 0 mm 7 mps 761 mmHg 86%
    06:00 -3°C° 0 mm 7 mps 762 mmHg 87%
    07:00 -3°C° 0 mm 7 mps 762 mmHg 85%
    08:00 -2°C° 0 mm 7 mps 763 mmHg 83%
    09:00 -2°C° 0 mm 7 mps 763 mmHg 81%
    10:00 -1°C° 0 mm 6 mps 764 mmHg 78%
    11:00 +1°C° 0 mm 6 mps 764 mmHg 75%
    12:00 +2°C° 0 mm 6 mps 764 mmHg 71%
    13:00 +2°C° 0 mm 6 mps 764 mmHg 73%
    14:00 +2°C° 0 mm 5 mps 765 mmHg 76%
    15:00 +2°C° 0 mm 5 mps 765 mmHg 78%
    16:00 +1°C° 0 mm 5 mps 765 mmHg 80%
    17:00 -1°C° 0 mm 6 mps 765 mmHg 82%
    18:00 -1°C° 0 mm 6 mps 766 mmHg 84%
    19:00 -1°C° 0 mm 5 mps 766 mmHg 85%
    20:00 -1°C° 0 mm 5 mps 766 mmHg 86%
    21:00 -1°C° 0 mm 5 mps 766 mmHg 86%
    22:00 -1°C° 0 mm 4 mps 766 mmHg 86%
    23:00 -1°C° 0 mm 4 mps 767 mmHg 86%
    Show more